Date,TemperatureHighF,TemperatureAvgF,TemperatureLowF,DewpointHighF,DewpointAvgF,DewpointLowF,HumidityHigh,HumidityAvg,HumidityLow,PressureMaxIn,PressureMinIn,WindSpeedMaxMPH,WindSpeedAvgMPH,GustSpeedMaxMPH,PrecipitationSumIn
2019-1-1,46.0,43.2,40.5,44.1,36.6,27.3,93,77,56,30.03,29.64,44,15,44,0.06
2019-1-2,42.1,36.7,31.3,27.9,21.9,16.0,73,56,43,30.51,29.89,41,11,42,0.00
2019-1-3,40.3,35.8,31.3,31.6,29.0,23.9,89,77,65,30.58,30.46,20,4,20,0.00
2019-1-4,43.3,38.4,33.6,40.3,36.6,30.4,92,88,76,30.46,30.06,15,5,16,0.00
2019-1-5,43.3,36.1,28.9,39.9,35.4,26.8,93,89,80,30.33,30.05,18,3,18,0.00
2019-1-6,37.6,32.7,27.7,36.0,30.2,25.7,94,89,73,30.38,30.33,11,3,11,0.00
2019-1-7,43.5,40.3,37.2,41.9,37.3,34.9,95,93,85,30.34,29.60,20,5,25,0.17
2019-1-8,43.5,39.5,35.4,41.7,36.8,31.8,94,91,84,29.62,29.26,22,8,30,0.20
2019-1-9,36.1,33.2,30.4,31.8,28.2,25.2,86,79,76,30.22,29.62,27,12,33,0.00
2019-1-10,35.2,30.7,26.1,33.4,27.8,22.5,93,87,81,30.27,30.06,16,3,17,0.00
2019-1-11,44.4,38.3,32.2,41.0,36.7,29.7,95,90,83,30.06,29.82,16,5,19,0.01
2019-1-12,41.2,36.4,31.6,39.4,35.7,29.8,94,93,91,29.91,29.44,16,6,18,0.11
2019-1-13,45.0,40.8,36.7,43.2,38.8,31.1,95,92,79,29.46,28.92,31,8,31,0.21
2019-1-14,36.7,33.5,30.4,30.9,25.5,19.8,86,70,53,29.67,29.11,33,9,35,0.01
2019-1-15,43.5,38.8,34.2,41.7,34.6,26.2,94,86,72,29.68,29.47,31,8,31,0.09
2019-1-16,44.8,42.7,40.5,41.5,40.1,36.7,94,90,83,29.59,29.24,29,9,31,0.21
2019-1-17,42.1,34.5,27.0,39.6,31.6,22.1,92,88,78,29.68,29.21,27,8,30,0.33
2019-1-18,34.7,29.5,24.3,29.8,26.0,21.2,90,85,81,30.03,29.68,11,4,12,0.06
2019-1-19,36.7,31.9,27.3,33.3,29.2,24.4,93,91,86,30.09,30.03,14,5,16,0.05
2019-1-20,34.9,30.4,25.9,31.8,28.7,24.1,93,91,88,30.16,30.06,12,5,13,0.01
2019-1-21,33.8,32.7,31.6,32.0,30.6,28.9,93,92,88,30.15,29.90,20,6,23,0.15
2019-1-22,34.0,32.5,31.1,32.2,29.8,26.6,93,90,83,29.95,29.75,21,4,25,0.02
2019-1-23,33.4,30.6,27.9,26.6,25.5,23.9,87,81,70,29.87,29.71,21,6,21,0.00
2019-1-24,31.1,29.5,28.0,25.5,23.8,22.5,83,78,74,30.03,29.87,20,6,21,0.00
2019-1-25,29.5,27.4,25.7,23.2,21.4,19.8,81,79,74,30.02,29.74,13,3,15,0.00
2019-1-26,32.5,29.6,26.8,30.2,27.0,20.5,91,88,77,29.74,29.44,19,5,23,0.00
2019-1-27,36.1,33.9,31.8,34.9,32.4,29.8,95,94,91,29.44,29.08,18,5,23,0.42
2019-1-28,38.7,35.9,33.1,36.7,34.5,31.1,95,93,88,29.39,29.09,11,4,16,0.04
2019-1-29,36.7,33.6,30.7,31.1,28.7,24.8,92,84,72,29.59,29.39,14,5,16,0.00
2019-1-30,36.9,32.5,28.0,33.6,30.1,25.7,92,89,85,29.65,29.58,21,4,23,0.00
2019-1-31,34.7,33.6,32.4,30.9,29.5,28.0,87,83,79,29.64,29.56,25,7,25,0.00
2019-2-1,37.0,34.6,32.2,31.1,29.9,27.9,89,84,76,29.63,29.52,17,7,19,0.00
2019-2-2,36.1,34.8,33.6,33.1,31.3,29.3,90,86,82,29.65,29.52,15,6,17,0.01
2019-2-3,34.9,31.4,27.9,32.0,29.9,25.0,92,88,83,30.15,29.65,19,4,20,0.02
2019-2-4,37.2,33.0,28.8,32.9,29.7,26.2,93,86,74,30.20,30.03,26,8,32,0.08
2019-2-5,42.4,38.3,34.3,37.6,35.2,31.6,91,86,79,30.19,29.96,26,11,29,0.03
2019-2-6,39.0,36.7,34.3,37.4,34.4,31.6,94,91,85,30.23,29.97,15,6,22,0.17
2019-2-7,41.5,39.7,37.8,38.1,36.9,35.6,94,93,85,29.98,29.56,27,6,33,0.16
2019-2-8,44.2,42.4,40.6,39.2,38.1,36.9,91,86,80,29.75,29.54,27,10,32,0.12
2019-2-9,45.9,43.5,41.0,41.0,39.1,37.2,93,87,74,29.54,29.31,33,12,34,0.46
2019-2-10,43.9,40.9,37.9,39.0,37.3,35.4,93,88,81,29.46,29.17,32,7,34,0.17
2019-2-11,39.0,36.8,34.5,37.2,32.5,28.2,93,84,73,30.03,29.23,28,7,33,0.02
2019-2-12,40.6,36.3,32.2,36.7,29.2,25.5,91,76,57,30.34,30.03,19,6,21,0.04
2019-2-13,47.8,43.3,39.0,42.1,40.0,36.7,93,88,77,30.40,30.18,26,10,29,0.00
2019-2-14,45.9,43.7,41.7,42.4,40.4,38.8,94,91,86,30.51,30.40,19,6,21,0.00
2019-2-15,51.8,44.5,37.4,38.8,36.0,31.5,93,79,52,30.50,30.32,15,5,16,0.00
2019-2-16,54.3,44.9,36.7,41.4,36.0,30.6,86,73,57,30.32,30.10,18,6,20,0.00
2019-2-17,49.5,45.5,41.5,44.4,40.8,38.8,91,88,82,30.23,30.16,16,4,17,0.00
2019-2-18,55.2,45.5,36.3,44.8,39.1,34.2,94,87,69,30.17,29.89,13,3,14,0.00
2019-2-19,45.3,42.5,39.9,41.0,38.5,36.0,91,85,80,29.89,29.72,25,9,30,0.09
2019-2-20,49.3,43.9,38.8,41.2,38.1,34.3,93,83,70,30.10,29.82,25,7,27,0.09
2019-2-21,46.2,41.1,36.0,44.1,41.3,33.6,94,93,91,30.41,30.02,19,7,23,0.27
2019-2-22,38.7,34.3,30.2,33.6,26.6,24.3,91,75,60,30.89,30.41,24,6,24,0.01
2019-2-23,45.1,38.4,31.8,31.5,28.3,25.5,81,71,55,30.87,30.68,15,5,17,0.00
2019-2-24,53.4,43.3,34.2,42.3,33.7,27.7,94,78,67,30.69,30.60,13,4,18,0.00
2019-2-25,52.2,43.9,35.8,41.9,37.9,33.1,94,85,67,30.63,30.49,16,4,16,0.00
2019-2-26,53.8,46.9,40.1,45.1,40.8,37.9,93,87,69,30.52,30.42,9,3,12,0.00
2019-2-27,57.4,47.2,37.6,40.1,36.7,32.0,90,75,52,30.42,29.83,18,6,23,0.00
2019-2-28,51.6,41.9,32.2,37.6,33.7,28.2,89,76,46,29.88,29.76,16,4,18,0.00
2019-3-1,47.3,37.0,27.0,31.6,28.3,23.9,91,77,47,30.01,29.82,9,2,11,0.00
2019-3-2,40.3,35.0,29.7,34.2,31.5,27.9,93,87,77,30.01,29.71,17,4,20,0.00
2019-3-3,49.5,44.6,39.7,44.1,38.7,33.6,92,80,65,29.71,29.34,25,9,28,0.13
2019-3-4,50.7,45.7,40.6,46.2,41.2,37.6,94,89,80,29.34,28.85,30,8,36,0.48
2019-3-5,41.7,39.3,36.9,39.0,36.2,34.3,93,91,89,29.73,28.95,27,6,33,0.57
2019-3-6,44.2,40.1,36.1,39.9,37.5,34.0,94,89,78,29.78,29.41,21,6,25,0.45
2019-3-7,47.7,44.9,42.1,45.1,41.1,36.1,93,87,72,29.41,29.15,37,8,40,0.18
2019-3-8,46.6,42.5,38.5,39.4,34.9,29.1,89,76,54,29.71,29.11,39,12,40,0.07
2019-3-9,46.2,42.0,37.8,39.7,34.8,31.6,91,80,64,29.70,29.30,32,12,38,0.18
2019-3-10,43.7,36.4,29.3,38.1,32.7,23.9,90,82,65,29.60,29.32,32,7,38,0.16
2019-3-11,45.0,36.2,27.5,30.4,25.8,21.9,90,73,49,30.02,29.60,15,4,17,0.00
2019-3-12,45.1,36.5,27.9,36.9,33.2,23.5,90,84,68,30.03,29.42,29,8,32,0.48
2019-3-13,44.4,40.2,36.1,38.8,36.8,33.4,90,87,78,29.42,29.25,27,10,33,0.35
2019-3-14,47.3,42.9,38.7,41.9,37.8,34.3,92,88,77,29.38,29.19,19,6,25,0.23
2019-3-15,44.4,40.5,36.5,39.7,37.8,34.2,93,90,79,29.37,28.97,22,6,27,0.50
2019-3-16,46.8,41.4,36.0,41.9,36.8,33.4,92,84,68,29.56,29.27,24,9,26,0.38
2019-3-17,47.5,43.8,40.5,43.5,38.6,33.3,92,80,63,29.34,29.18,37,14,40,0.14
2019-3-18,44.8,39.8,34.9,37.8,33.3,29.3,89,76,61,29.97,29.33,33,9,33,0.10
2019-3-19,48.4,40.0,31.5,31.8,27.9,25.2,85,67,47,30.36,29.96,18,4,20,0.00
2019-3-20,48.7,41.7,34.7,44.8,38.5,29.5,92,86,79,30.42,30.29,21,7,23,0.01
2019-3-21,52.5,47.8,43.0,47.5,44.4,40.8,92,88,83,30.45,30.34,25,9,27,0.00
2019-3-22,49.6,43.6,37.6,44.4,40.9,35.2,93,88,74,30.55,30.31,17,4,22,0.00
2019-3-23,53.8,46.6,39.7,44.4,39.4,32.2,92,77,56,30.37,30.22,21,7,22,0.00
2019-3-24,50.5,44.2,38.1,38.5,34.9,31.5,88,75,52,30.37,29.92,21,8,22,0.00
2019-3-25,50.0,43.0,36.1,40.5,35.7,32.9,92,83,65,30.17,29.74,18,6,23,0.13
2019-3-26,48.0,41.8,35.8,37.2,32.0,26.4,90,72,48,30.28,30.07,22,6,27,0.00
2019-3-27,52.3,44.6,36.9,44.4,40.6,29.8,92,84,68,30.36,30.24,17,6,20,0.01
2019-3-28,58.3,51.2,44.8,47.8,43.6,41.4,92,83,67,30.48,30.35,17,4,17,0.00
2019-3-29,58.3,50.0,41.9,44.6,41.3,37.9,88,74,59,30.47,30.25,26,9,31,0.00
2019-3-30,60.3,49.7,39.0,44.4,40.5,35.8,89,73,54,30.25,29.99,21,8,26,0.00
2019-3-31,48.4,40.6,32.7,39.6,29.7,23.2,79,63,46,30.38,30.02,25,8,31,0.00
2019-4-1,50.2,38.8,27.3,31.6,26.8,21.2,88,65,37,30.46,30.29,19,4,22,0.00
2019-4-2,50.4,43.6,36.9,35.8,32.0,28.6,81,65,44,30.29,29.82,31,7,31,0.00
2019-4-3,55.9,49.5,43.2,42.3,38.2,34.7,78,69,58,29.83,29.71,19,6,21,0.00
2019-4-4,59.2,51.0,43.0,43.3,38.6,35.2,77,67,53,29.74,29.64,20,7,20,0.00
2019-4-5,61.2,52.2,43.5,43.0,38.6,34.9,79,64,47,29.89,29.73,18,7,25,0.00
2019-4-6,65.5,53.8,42.3,47.3,40.5,36.1,83,67,45,29.94,29.88,17,5,18,0.02
2019-4-7,64.0,50.9,37.9,43.2,38.1,33.1,84,68,41,29.92,29.87,11,2,13,0.00
2019-4-8,53.6,45.6,37.8,38.8,33.8,31.1,82,65,47,30.08,29.90,19,7,19,0.00
2019-4-9,45.3,39.4,33.6,33.6,26.0,18.1,88,62,38,30.14,30.07,17,5,20,0.00
2019-4-10,47.5,38.0,28.9,29.1,25.8,21.2,78,63,41,30.32,30.12,18,6,18,0.00
2019-4-11,46.4,40.3,34.2,29.3,26.1,20.5,78,63,40,30.44,30.32,13,5,15,0.00
2019-4-12,45.3,38.5,31.6,28.6,25.3,19.9,81,63,39,30.50,30.44,16,4,18,0.00
2019-4-13,46.8,37.4,28.2,30.7,27.9,23.4,85,68,51,30.49,30.44,19,6,19,0.00
2019-4-14,54.0,42.8,32.2,32.5,28.6,23.2,78,60,40,30.60,30.47,17,7,21,0.00
2019-4-15,52.5,42.8,33.3,33.4,28.8,26.1,76,61,41,30.61,30.47,16,6,16,0.00
2019-4-16,53.2,44.1,34.9,37.6,31.2,26.6,75,63,43,30.49,30.38,20,6,22,0.00
2019-4-17,62.8,48.2,34.2,38.1,33.0,28.2,79,58,36,30.56,30.47,17,4,17,0.00
2019-4-18,66.0,50.2,34.5,38.1,35.1,29.7,83,58,33,30.66,30.56,13,3,14,0.00
2019-4-19,64.9,49.5,34.2,41.9,33.6,28.6,82,58,29,30.69,30.59,10,2,11,0.00
2019-4-20,65.3,50.2,35.2,40.1,34.7,30.9,86,62,34,30.63,30.53,9,2,10,0.00